Weather in Topeka

United States     39°00′59″N   95°42′17″W
temp.,
°C
wind,
m/s
gust,
m/s
humid.,
%
clouds,
%
prec.,
mm/h
press.,
hPa
HPBL,
m
16 may, sun
sun1601:00+14se479711 0.1 1017153
04:00+14se4998100 2.7 1016247
07:00+14e4699100 7.4 1015123
10:00+17ese6996100 4.5 1015489
13:00+19sse4893100 10.9 1015700
16:00+22sw4779100 3.1 1012870
19:00+20ssw61187100 5.6 1012497
22:00+16sse41095100 1.2 1013379
17 may, mon
mon1701:00+15se2496100 1.2 101389
04:00+13se129896 0.0 101315
07:00+14ne2398100 0.0 1013105
10:00+18ene358860 0.0 1013519
13:00+21ene3374100 0.2 1013991
16:00+22e126987 0.2 1012960
19:00+20e3484100 0.3 101382
22:00+17ene3894100 0.1 1014171
18 may, tue
tue1801:00+15ene369781 0.1 1013134
04:00+14e259974 0.0 1013120
07:00+15e4595100 0.0 1014326
10:00+17e5689100 0.0 1013478
13:00+18ese3589100 0.8 1014542
16:00+19ene348834 2.3 1011347
19:00+20ese468618 4.0 1011415
22:00+18ese369467 0.4 1011114
19 may, wed
wed1901:00+16ese2295100 0.4 101125
04:00+16se3395100 0.0 101161
07:00+16nne2399100 3.8 101081
10:00+17sw3497100 6.8 1012176
13:00+22s3476100 7.1 1012895
16:00+21s698450 0.5 1012740
19:00+21sse4108799 0.8 1011789
22:00+19sse51394100 0.1 1013425
20 may, thu
thu2001:00+19s6149594 0.1 1014669
04:00+17sse71397100 0.0 1014567
07:00+17s71289100 0.0 1016688
10:00+19s71188100 0.9 1017702
13:00+21s81280100 0.9 1017836
16:00+23s81280100 0.1 10171154
19:00+21s61286100 0.1 1017776
22:00+19s5149578 0.0 1018537